风云三号E星 (FENGYUN 3E)

导读

FENGYUN 3E(风云三号E星)是中国于2021年7月4日发射的第二代太阳同步轨道气象卫星,也是风云三号系列的晨昏轨道卫星。它搭载11类先进观测仪器,覆盖多波段探测,可实现三维大气探测、大气化学组分监测、地表参数观测等任务。该星组网后将全球气象观测数据更新时效缩短至6小时,大幅提升中期天气预报能力,其观测数据也为全球气象业务提供重要支撑。

Basic Information
目录编号:
49008
目录名称:
FENGYUN 3E
国际标识:
2021-062A
轨道中心:
EARTH
卫星名称:
风云三号E星
卫星全名:
风云三号E星 (FENGYUN 3E)
卫星状态:
在轨 (已飞行1895 天)
发射日期:
2021-07-04 UTC
国别 :
中国 (CN)
星等 :
--
This satellite is enrolled in the Space Conjunction Data Service (SCDS) and the current flight risk assessment level is: No High Risk
Orbit Information
数据来源 国际轨道数据 AOE轨道数据
星历时间 2026-09-11T07:02:03+0800
9小时前
查看轨道信息
2026-09-07T01:00:00+0800
4天前
查看轨道信息
半长轴 7203.795km 7203.796km
偏心率 0.0001454 0.0001209
轨道倾角 98.754° 98.755°
近地点辐角 157.096° 167.044°
升交点赤经 256.430° 252.224°
平近点角 203.028° 73.395°
近地点 824.61km 824.788km
远地点 826.706km 826.53km
周期 101.415分钟 101.415分钟
每日圈数 14.199099 14.199096
Detailed Information
平衡模式:
三轴稳定
覆盖范围:
亚洲
运营商:
夏威夷科学技术博物馆
运营商所在国:
美国
制造商(研发单位):
上海航天技术研究院
制造商所在国:
中国
使用方式:
暂无
Satellite Introduction
风云气象卫星系列(FENGYUN Meteorological Satellite)是中国于1977年开始研制的气象卫星系列,目前发射了风云一号、风云二号、风云三号、风云四号等卫星系列。其中,风云二号系列、风云四号系列为风云静止卫星,风云一号系列、风云三号系列为风云极轨卫星。该卫星仍在工作。
2D Orbit Map
3D Orbit Map
Orbit Altitude Analysis Chart
Orbit Inclination Analysis Chart
Orbit Comprehensive Analysis Chart
View Comprehensive Chart
Conjunction Data List
Event ID Objects TCA Miss Dist (km) Collision Risk Probability Collision Risk Index (CRI) Action
CDM_260912-164402-428404-900824
2026-09-12T
16:44:03+0000
1.435 km
极远距离
4.409746E-6 低风险 0.48
CDM_260912-201404-183304-900823
2026-09-12T
20:14:37+0000
2.030 km
极远距离
1.961549E-6 低风险 0.41
CDM_260913-132704-900806-149323
2026-09-13T
13:27:25+0000
2.961 km
极远距离
4.184385E-7 极低风险 0.27
Miss Distance Evolution Trend with All Objects
Collision Probability Evolution Trend with All Objects